FW8253 Weather Reports


time (UTC)temp
C
wind
direction
speed
KPH
gust
KPH
rain 1hr
cm
rain 24hr
cm
rain mn
cm
humidity
%
barometer
mb
20260902171808 34 144 0.0 0.0 0.00 0.00 0.00 60 1019.4
20260902171303 34 236 0.0 0.0 0.00 0.00 0.00 64 1019.4
20260902170800 35 229 0.0 0.0 0.00 0.00 0.00 61 1019.4
20260902170255 35 154 0.0 0.0 0.00 0.00 0.00 59 1019.5
20260902165750 35 234 0.0 0.0 0.00 0.00 0.00 59 1019.4
20260902165250 36 85 0.0 0.0 0.00 0.00 0.00 56 1019.3
20260902164744 36 83 0.0 0.0 0.00 0.00 0.00 57 1019.5
20260902164238 35 12 0.0 0.0 0.00 0.00 0.00 57 1019.5
20260902163734 35 182 0.0 0.0 0.00 0.00 0.00 58 1019.8
20260902163233 35 126 0.0 0.0 0.00 0.00 0.00 58 1019.4
20260902162732 35 220 0.0 0.0 0.00 0.00 0.00 60 1019.8
20260902162226 35 222 0.0 0.0 0.00 0.00 0.00 60 1019.7
20260902161722 35 100 0.0 0.0 0.00 0.00 0.00 59 1019.9
20260902161217 35 223 0.0 0.0 0.00 0.00 0.00 59 1019.8
20260902160714 35 160 0.0 0.0 0.00 0.00 0.00 56 1019.9
20260902160208 35 223 0.0 0.0 0.00 0.00 0.00 59 1019.9
20260902155706 34 233 0.0 0.0 0.00 0.00 0.00 62 1019.9
20260902155205 33 192 0.0 0.0 0.00 0.00 0.00 62 1020.1
20260902154700 33 207 0.0 0.0 0.00 0.00 0.00 60 1020.0
20260902154155 34 207 0.0 0.0 0.00 0.00 0.00 57 1020.1
20260902153655 34 267 0.0 0.0 0.00 0.00 0.00 63 1020.2
20260902153149 33 219 0.0 0.0 0.00 0.00 0.00 64 1020.1
20260902152646 33 196 0.0 0.0 0.00 0.00 0.00 63 1020.3
20260902152141 33 249 0.0 0.0 0.00 0.00 0.00 65 1020.1
20260902151636 33 216 0.0 0.0 0.00 0.00 0.00 64 1020.1
20260902151131 33 223 0.0 0.0 0.00 0.00 0.00 65 1020.2
20260902150626 33 167 0.0 0.0 0.00 0.00 0.00 65 1020.1
20260902150121 32 230 0.0 0.0 0.00 0.00 0.00 67 1020.0
20260902145616 32 212 0.0 0.0 0.00 0.00 0.00 70 1020.2
20260902145115 32 135 0.0 0.0 0.00 0.00 0.00 69 1020.1
20260902144612 33 339 0.0 0.0 0.00 0.00 0.00 69 1020.1
20260902144112 32 224 0.0 0.0 0.00 0.00 0.00 71 1020.3
20260902143607 32 157 0.0 0.0 0.00 0.00 0.00 74 1020.3
20260902143103 31 28 0.0 0.0 0.00 0.00 0.00 75 1020.3
20260902142558 32 148 0.0 0.0 0.00 0.00 0.00 75 1020.2
20260902142054 32 149 0.0 0.0 0.00 0.00 0.00 75 1020.2
20260902141548 31 161 0.0 0.0 0.00 0.00 0.00 76 1020.2
20260902141043 31 83 0.0 0.0 0.00 0.00 0.00 75 1020.3
20260902140538 30 195 0.0 0.0 0.00 0.00 0.00 80 1020.3
20260902140033 30 93 0.0 0.0 0.00 0.00 0.00 80 1020.1
20260902135532 29 167 0.0 0.0 0.00 0.00 0.00 82 1020.2
20260902135027 28 170 0.0 0.0 0.00 0.00 0.00 85 1020.4
20260902134524 27 201 0.0 0.0 0.00 0.00 0.00 88 1020.3
20260902134023 27 201 0.0 0.0 0.00 0.00 0.00 88 1020.2
20260902133523 27 213 0.0 0.0 0.00 0.00 0.00 87 1020.5
20260902133018 27 252 0.0 0.0 0.00 0.00 0.00 89 1020.2
20260902132513 27 252 0.0 0.0 0.00 0.00 0.00 90 1020.2
20260902132009 26 283 0.0 0.0 0.00 0.00 0.00 90 1020.4
20260902131505 26 178 0.0 0.0 0.00 0.00 0.00 91 1020.4
20260902131004 26 178 0.0 0.0 0.00 0.00 0.00 92 1020.4
20260902130501 26 178 0.0 0.0 0.00 0.00 0.00 94 1020.3
20260902125955 25 177 0.0 0.0 0.00 0.00 0.00 95 1020.4
20260902125452 25 177 0.0 0.0 0.00 0.00 0.00 98 1020.3
20260902124947 24 177 0.0 0.0 0.00 0.00 0.00 99 1020.3
20260902124443 23 177 0.0 0.0 0.00 0.00 0.00 99 1020.4
20260902123938 23 177 0.0 0.0 0.00 0.00 0.00 99 1020.3
20260902123434 23 177 0.0 0.0 0.00 0.00 0.00 99 1020.4
20260902122932 23 177 0.0 0.0 0.00 0.00 0.00 99 1020.4
20260902122428 23 177 0.0 0.0 0.00 0.00 0.00 99 1020.5
20260902121924 22 177 0.0 0.0 0.00 0.00 0.00 99 1020.5
20260902121418 22 177 0.0 0.0 0.00 0.00 0.00 99 1020.5
20260902120913 22 177 0.0 0.0 0.00 0.00 0.00 99 1020.5
20260902120410 22 177 0.0 0.0 0.00 0.00 0.00 99 1020.4
20260902115909 22 177 0.0 0.0 0.00 0.00 0.00 99 1020.4
20260902115405 22 177 0.0 0.0 0.00 0.00 0.00 99 1020.2
20260902114902 22 177 0.0 0.0 0.00 0.00 0.00 99 1020.0
20260902114357 22 177 0.0 0.0 0.00 0.00 0.00 99 1020.2
20260902113857 22 177 0.0 0.0 0.00 0.00 0.00 99 1020.2
20260902113353 22 177 0.0 0.0 0.00 0.00 0.00 99 1020.2
20260902112852 22 177 0.0 0.0 0.00 0.00 0.00 99 1019.9
20260902112349 22 177 0.0 0.0 0.00 0.00 0.00 99 1020.1
20260902111844 22 177 0.0 0.0 0.00 0.00 0.00 99 1020.0
20260902111341 22 177 0.0 0.0 0.00 0.00 0.00 99 1020.0
20260902110836 22 177 0.0 0.0 0.00 0.00 0.00 99 1019.9
20260902110332 22 177 0.0 0.0 0.00 0.00 0.00 99 1019.9
20260902105831 22 177 0.0 0.0 0.00 0.00 0.00 99 1019.8
20260902105326 22 177 0.0 0.0 0.00 0.00 0.00 99 1019.9
20260902104821 22 177 0.0 0.0 0.00 0.00 0.00 99 1019.8
20260902104318 22 177 0.0 0.0 0.00 0.00 0.00 99 1019.8
20260902103818 22 177 0.0 0.0 0.00 0.00 0.00 99 1019.9
20260902103312 22 177 0.0 0.0 0.00 0.00 0.00 99 1019.8
20260902102808 22 177 0.0 0.0 0.00 0.00 0.00 99 1019.6
20260902102307 22 177 0.0 0.0 0.00 0.00 0.00 99 1019.8
20260902101801 22 177 0.0 0.0 0.00 0.00 0.00 99 1019.6
20260902101255 22 177 0.0 0.0 0.00 0.00 0.00 99 1019.5
20260902100755 22 177 0.0 0.0 0.00 0.00 0.00 99 1019.3
20260902100249 22 178 0.0 0.0 0.00 0.00 0.00 99 1019.5
20260902095743 22 179 0.0 0.0 0.00 0.00 0.00 99 1019.5
20260902095238 22 179 0.0 0.0 0.00 0.00 0.00 99 1019.7
20260902094732 22 179 0.0 0.0 0.00 0.00 0.00 99 1019.5
20260902094229 22 179 0.0 0.0 0.00 0.00 0.00 99 1019.5
20260902093728 22 179 0.0 0.0 0.00 0.00 0.00 99 1019.4
20260902093224 22 179 0.0 0.0 0.00 0.00 0.00 99 1019.4
20260902092723 22 179 0.0 0.0 0.00 0.00 0.00 99 1019.6
20260902092218 22 179 0.0 0.0 0.00 0.00 0.00 99 1019.3
20260902091718 22 179 0.0 0.0 0.00 0.00 0.00 99 1019.4
20260902091214 22 179 0.0 0.0 0.00 0.00 0.00 99 1019.1
20260902090710 22 179 0.0 0.0 0.00 0.00 0.00 99 1019.1
20260902090209 22 179 0.0 0.0 0.00 0.00 0.00 99 1019.2
20260902085704 22 179 0.0 0.0 0.00 0.00 0.00 99 1019.2
20260902085159 22 179 0.0 0.0 0.00 0.00 0.00 99 1019.2
20260902084655 22 179 0.0 0.0 0.00 0.00 0.00 99 1019.2
20260902084151 22 179 0.0 0.0 0.00 0.00 0.00 99 1019.3
20260902083646 22 179 0.0 0.0 0.00 0.00 0.00 99 1018.9
20260902083145 22 179 0.0 0.0 0.00 0.00 0.00 99 1019.3
20260902082641 22 179 0.0 0.0 0.00 0.00 0.00 99 1019.0
20260902082137 23 178 0.0 0.0 0.00 0.00 0.00 99 1019.0
20260902081633 23 179 0.0 0.0 0.00 0.00 0.00 99 1019.0
20260902081128 23 180 0.0 0.0 0.00 0.00 0.00 99 1019.0
20260902080623 23 180 0.0 0.0 0.00 0.00 0.00 99 1018.9
20260902080120 23 180 0.0 0.0 0.00 0.00 0.00 99 1019.0
20260902075619 23 180 0.0 0.0 0.00 0.00 0.00 99 1018.8
20260902075116 23 180 0.0 0.0 0.00 0.00 0.00 99 1018.9
20260902074611 23 180 0.0 0.0 0.00 0.00 0.00 99 1018.8
20260902074106 23 180 0.0 0.0 0.00 0.00 0.00 99 1018.8
20260902073601 23 180 0.0 0.0 0.00 0.00 0.00 99 1018.9
20260902073058 23 180 0.0 0.0 0.00 0.00 0.00 99 1018.8
20260902072553 23 180 0.0 0.0 0.00 0.00 0.00 99 1018.8
20260902072050 23 180 0.0 0.0 0.00 0.00 0.00 99 1018.8
20260902071549 23 180 0.0 0.0 0.00 0.00 0.00 99 1018.7
20260902071045 23 180 0.0 0.0 0.00 0.00 0.00 99 1018.8
20260902070540 23 180 0.0 0.0 0.00 0.00 0.00 98 1018.7
20260902070035 23 180 0.0 0.0 0.00 0.00 0.00 98 1019.0
20260902065529 23 180 0.0 0.0 0.00 0.00 0.00 98 1018.7
20260902065024 23 180 0.0 0.0 0.00 0.00 0.00 98 1019.0
20260902064520 23 180 0.0 0.0 0.00 0.00 0.00 98 1019.0
20260902064016 23 180 0.0 0.0 0.00 0.00 0.00 98 1018.9
20260902063515 23 180 0.0 0.0 0.00 0.00 0.00 98 1019.3
20260902063011 23 180 0.0 0.0 0.00 0.00 0.00 97 1019.3
20260902062509 23 180 0.0 0.0 0.00 0.00 0.00 97 1019.4
20260902062005 23 180 0.0 0.0 0.00 0.00 0.00 97 1019.2
20260902061505 23 180 0.0 0.0 0.00 0.00 0.00 97 1019.2
20260902061001 24 180 0.0 0.0 0.00 0.00 0.00 97 1019.3
20260902060457 24 180 0.0 0.0 0.00 0.00 0.00 97 1019.1
20260902055953 24 180 0.0 0.0 0.00 0.00 0.00 97 1019.2
20260902055449 24 180 0.0 0.0 0.00 0.00 0.00 97 1019.2
20260902054944 24 180 0.0 0.0 0.00 0.00 0.00 96 1019.2
20260902054439 24 180 0.0 0.0 0.00 0.00 0.00 96 1019.3
20260902053934 24 180 0.0 0.0 0.00 0.00 0.00 96 1019.3
20260902053430 24 180 0.0 0.0 0.00 0.00 0.00 95 1019.1
20260902052929 24 176 0.0 0.0 0.00 0.00 0.00 95 1019.3
20260902052424 25 176 0.0 0.0 0.00 0.00 0.00 95 1019.5
20260902051919 25 176 0.0 0.0 0.00 0.00 0.00 94 1019.3
20260902051414 25 176 0.0 0.0 0.00 0.00 0.00 94 1019.1
20260902050912 25 177 0.0 0.0 0.00 0.00 0.00 94 1019.2
20260902050413 25 177 0.0 0.0 0.00 0.00 0.00 94 1019.2
20260902045908 25 177 0.0 0.0 0.00 0.00 0.00 94 1019.2
20260902045403 25 177 0.0 0.0 0.00 0.00 0.00 93 1019.1
20260902044859 25 177 0.0 0.0 0.00 0.00 0.00 93 1019.2
20260902044354 25 177 0.0 0.0 0.00 0.00 0.00 93 1019.2
20260902043849 25 177 0.0 0.0 0.00 0.00 0.00 93 1019.1
20260902043344 25 177 0.0 0.0 0.00 0.00 0.00 93 1019.0
20260902042839 25 177 0.0 0.0 0.00 0.00 0.00 93 1019.1
20260902042338 25 177 0.0 0.0 0.00 0.00 0.00 92 1019.2
20260902041834 25 177 0.0 0.0 0.00 0.00 0.00 92 1019.0
20260902041334 25 177 0.0 0.0 0.00 0.00 0.00 92 1019.0
20260902040832 25 178 0.0 0.0 0.00 0.00 0.00 92 1019.0
20260902040328 25 178 0.0 0.0 0.00 0.00 0.00 92 1019.2
20260902035827 25 178 0.0 0.0 0.00 0.00 0.00 92 1018.8
20260902035323 25 177 0.0 0.0 0.00 0.00 0.00 92 1019.1
20260902034821 25 179 0.0 0.0 0.00 0.00 0.00 92 1019.1
20260902034317 25 180 0.0 0.0 0.00 0.00 0.00 92 1019.1
20260902033814 25 180 0.0 0.0 0.00 0.00 0.00 92 1019.0
20260902033310 25 180 0.0 0.0 0.00 0.00 0.00 92 1019.0
20260902032809 25 180 0.0 0.0 0.00 0.00 0.00 91 1018.9
20260902032306 25 181 0.0 0.0 0.00 0.00 0.00 91 1019.1
20260902031803 25 188 0.0 0.0 0.00 0.00 0.00 91 1019.0
20260902031300 25 175 0.0 0.0 0.00 0.00 0.00 91 1018.9
20260902030755 25 176 0.0 0.0 0.00 0.00 0.00 91 1018.7
20260902030250 25 176 0.0 0.0 0.00 0.00 0.00 90 1018.9
20260902025749 25 176 0.0 0.0 0.00 0.00 0.00 90 1019.0
20260902025244 25 176 0.0 0.0 0.00 0.00 0.00 90 1018.8
20260902024738 26 176 0.0 0.0 0.00 0.00 0.00 90 1018.8
20260902024234 26 176 0.0 0.0 0.00 0.00 0.00 90 1018.8
20260902023730 26 176 0.0 0.0 0.00 0.00 0.00 90 1019.0
20260902023225 26 176 0.0 0.0 0.00 0.00 0.00 89 1018.7
20260902022724 26 176 0.0 0.0 0.00 0.00 0.00 89 1018.8
20260902022220 26 176 0.0 0.0 0.00 0.00 0.00 89 1018.8
20260902021715 26 176 0.0 0.0 0.00 0.00 0.00 88 1018.6
20260902021209 26 187 0.0 0.0 0.00 0.00 0.00 88 1018.8
20260902020706 26 204 0.0 0.0 0.00 0.00 0.00 88 1018.6
20260902020201 26 204 0.0 0.0 0.00 0.00 0.00 87 1018.7
20260902015656 26 206 0.0 0.0 0.00 0.00 0.00 87 1018.3
20260902015153 26 206 0.0 0.0 0.00 0.00 0.00 87 1018.6
20260902014649 26 206 0.0 0.0 0.00 0.00 0.00 87 1018.5
20260902014144 26 205 0.0 0.0 0.00 0.00 0.00 86 1018.6
20260902013643 27 208 0.0 0.0 0.00 0.00 0.00 86 1018.3
20260902013139 27 209 0.0 0.0 0.00 0.00 0.00 86 1018.3
20260902012635 27 209 0.0 0.0 0.00 0.00 0.00 86 1018.1
20260902012130 27 209 0.0 0.0 0.00 0.00 0.00 85 1018.2
20260902011625 27 209 0.0 0.0 0.00 0.00 0.00 85 1018.0
20260902011126 27 209 0.0 0.0 0.00 0.00 0.00 85 1017.8
20260902010624 27 209 0.0 0.0 0.00 0.00 0.00 85 1017.9
20260902010120 27 209 0.0 0.0 0.00 0.00 0.00 85 1017.6
20260902005618 27 209 0.0 0.0 0.00 0.00 0.00 85 1017.9
20260902005115 27 209 0.0 0.0 0.00 0.00 0.00 85 1017.6
20260902004614 28 209 0.0 0.0 0.00 0.00 0.00 83 1017.7
20260902004109 28 209 0.0 0.0 0.00 0.00 0.00 83 1017.8
20260902003604 28 209 0.0 0.0 0.00 0.00 0.00 82 1017.7
20260902003100 28 209 0.0 0.0 0.00 0.00 0.00 82 1017.6
20260902002555 28 210 0.0 0.0 0.00 0.00 0.00 81 1017.4
20260902002050 28 210 0.0 0.0 0.00 0.00 0.00 80 1017.7
20260902001544 29 210 0.0 0.0 0.00 0.00 0.00 80 1017.6
20260902001040 29 219 0.0 0.0 0.00 0.00 0.00 80 1017.5
20260902000534 29 219 0.0 0.0 0.00 0.00 0.00 80 1017.6
20260902000030 30 219 0.0 0.0 0.00 0.00 0.00 80 1017.6
20260901235524 30 219 0.0 0.0 0.00 0.00 0.00 79 1017.7
20260901235020 30 220 0.0 0.0 0.00 0.00 0.00 79 1017.6
20260901234518 30 234 0.0 0.0 0.00 0.00 0.00 78 1017.8
20260901234014 30 234 0.0 0.0 0.00 0.00 0.00 78 1017.6
20260901233509 30 229 0.0 0.0 0.00 0.00 0.00 76 1017.8
20260901233005 30 234 0.0 0.0 0.00 0.00 0.00 76 1017.7
20260901232500 30 234 0.0 0.0 0.00 0.00 0.00 76 1017.5
20260901231955 30 223 0.0 0.0 0.00 0.00 0.00 75 1017.8
20260901231451 31 226 0.0 0.0 0.00 0.00 0.00 75 1017.7
20260901230948 31 231 0.0 0.0 0.00 0.00 0.00 74 1017.5
20260901230447 31 225 0.0 0.0 0.00 0.00 0.00 72 1017.8
20260901225942 31 225 0.0 0.0 0.00 0.00 0.00 72 1017.6
20260901225442 31 228 0.0 0.0 0.00 0.00 0.00 71 1017.6
20260901224937 31 228 0.0 0.0 0.00 0.00 0.00 71 1017.7
20260901224433 31 227 0.0 0.0 0.00 0.00 0.00 70 1017.6
20260901223929 31 226 0.0 0.0 0.00 0.00 0.00 72 1017.6
20260901223424 31 226 0.0 0.0 0.00 0.00 0.00 72 1017.4
20260901222920 31 230 0.0 0.0 0.00 0.00 0.00 71 1017.4
20260901222416 31 226 0.0 0.0 0.00 0.00 0.00 71 1017.4
20260901221912 31 237 0.0 0.0 0.00 0.00 0.00 70 1017.5
20260901221408 31 235 0.0 0.0 0.00 0.00 0.00 71 1017.5
20260901220902 31 233 0.0 0.0 0.00 0.00 0.00 71 1017.6
20260901220401 31 233 0.0 0.0 0.00 0.00 0.00 71 1017.4
20260901215900 31 234 0.0 0.0 0.00 0.00 0.00 69 1017.8
20260901215359 32 227 0.0 0.0 0.00 0.00 0.00 67 1017.5
20260901214858 32 229 0.0 0.0 0.00 0.00 0.00 65 1017.7
20260901214357 32 235 0.0 0.0 0.00 0.00 0.00 63 1017.7
20260901213856 33 220 0.0 0.0 0.00 0.00 0.00 64 1017.5
20260901213352 33 231 0.0 0.0 0.00 0.00 0.00 60 1017.2
20260901212851 34 92 0.0 0.0 0.00 0.00 0.00 58 1017.8
20260901212347 35 222 0.0 0.0 0.00 0.00 0.00 59 1017.5
20260901211843 35 244 0.0 0.0 0.00 0.00 0.00 55 1017.6
20260901211338 35 246 0.0 0.0 0.00 0.00 0.00 54 1017.5
20260901210834 36 98 0.0 0.0 0.00 0.00 0.00 52 1017.5
20260901210329 36 145 0.0 0.0 0.00 0.00 0.00 51 1017.4
20260901205825 37 243 0.0 0.0 0.00 0.00 0.00 49 1017.4
20260901205320 36 163 0.0 0.0 0.00 0.00 0.00 49 1017.5
20260901204815 36 164 0.0 0.0 0.00 0.00 0.00 49 1017.4
20260901204311 36 262 0.0 0.0 0.00 0.00 0.00 53 1017.6
20260901203811 36 153 0.0 0.0 0.00 0.00 0.00 55 1017.4
20260901203306 36 234 0.0 0.0 0.00 0.00 0.00 57 1017.7
20260901202800 35 232 0.0 0.0 0.00 0.00 0.00 55 1017.6
20260901202255 33 246 0.0 0.0 0.00 0.00 0.00 60 1017.8
20260901201751 32 243 0.0 0.0 0.00 0.00 0.00 65 1017.7
20260901201250 32 249 0.0 0.0 0.00 0.00 0.00 67 1017.8
20260901200744 33 232 0.0 0.0 0.00 0.00 0.00 67 1017.8
20260901200240 33 218 0.0 0.0 0.00 0.00 0.00 64 1018.0
20260901195738 35 225 0.0 0.0 0.00 0.00 0.00 57 1018.1
20260901195232 35 196 0.0 0.0 0.00 0.00 0.00 57 1018.1
20260901194728 35 170 0.0 0.0 0.00 0.00 0.00 56 1017.9
20260901194222 35 229 0.0 0.0 0.00 0.00 0.00 59 1018.2
20260901193719 33 224 0.0 0.0 0.00 0.00 0.00 60 1018.1
20260901193218 33 258 0.0 0.0 0.00 0.00 0.00 59 1018.5
20260901192712 33 234 0.0 0.0 0.00 0.00 0.00 61 1018.3
20260901192208 35 227 0.0 0.0 0.00 0.00 0.00 55 1018.4
20260901191703 36 234 0.0 0.0 0.00 0.00 0.00 53 1018.1
20260901191159 36 236 0.0 0.0 0.00 0.00 0.00 51 1018.5
20260901190655 37 239 0.0 0.0 0.00 0.00 0.00 51 1018.5
20260901190154 36 239 0.0 0.0 0.00 0.00 0.00 55 1018.5
20260901185653 36 231 0.0 0.0 0.00 0.00 0.00 53 1018.5
20260901185151 35 174 0.0 0.0 0.00 0.00 0.00 55 1018.6
20260901184650 33 234 0.0 0.0 0.00 0.00 0.00 63 1018.7
20260901184142 35 250 0.0 0.0 0.00 0.00 0.00 58 1018.8
20260901183638 35 296 0.0 0.0 0.00 0.00 0.00 57 1018.8
20260901183133 35 242 0.0 0.0 0.00 0.00 0.00 56 1019.0
20260901182629 35 320 0.0 0.0 0.00 0.00 0.00 54 1018.8
20260901182128 36 194 0.0 0.0 0.00 0.00 0.00 52 1018.9
20260901181628 35 284 0.0 0.0 0.00 0.00 0.00 55 1019.0
20260901181122 36 237 0.0 0.0 0.00 0.00 0.00 53 1019.0
20260901180622 36 132 0.0 0.0 0.00 0.00 0.00 52 1019.0
20260901180116 35 194 0.0 0.0 0.00 0.00 0.00 54 1019.0
20260901175615 35 176 0.0 0.0 0.00 0.00 0.00 55 1019.0
20260901175110 33 248 0.0 0.0 0.00 0.00 0.00 61 1019.3
20260901174605 33 226 0.0 0.0 0.00 0.00 0.00 65 1019.2
20260901174101 32 244 0.0 0.0 0.00 0.00 0.00 71 1019.5
20260901173555 33 243 0.0 0.0 0.00 0.00 0.00 67 1019.6
20260901173052 33 260 0.0 0.0 0.00 0.00 0.00 62 1019.6
20260901172547 33 13 0.0 0.0 0.00 0.00 0.00 62 1019.7
20260901172045 34 226 0.0 0.0 0.00 0.00 0.00 62 1019.6